Crescent City, CA

12:59 PM PDT on June 25, 2018 (GMT -0700)
McNamara

Weather History for KCEC - March, 2011

Change the Weather History Date:

Friday, March 4, 2011

  Actual Average Record
Temperature  
Mean Temperature 50 °F 48 °F  
Max Temperature 55 °F 54 °F 69 °F (1987)
Min Temperature 44 °F 42 °F 28 °F (1997)
Degree Days  
Heating Degree Days 15 17  
Month to date heating degree days 61 68  
Since 1 July heating degree days 3265 3241  
Cooling Degree Days 0 0  
Month to date cooling degree days 0 0  
Year to date cooling degree days 0 0  
Moisture  
Dew Point 45 °F    
Average Humidity 76    
Maximum Humidity 89    
Minimum Humidity 63    
Precipitation  
Precipitation 0.10 in 0.22 in 2.57 in (1951)
Month to date precipitation 1.30 0.96  
Year to date precipitation 10.26 20.23  
Since 1 July precipitation 41.49  
Snow  
Snow 0.00 in - - ()
Since 1 July snowfall 0.0  
Snow Depth 0.00 in    
Sea Level Pressure  
Sea Level Pressure 30.21 in    
Wind  
Wind Speed 13 mph (SSE)    
Max Wind Speed 22 mph    
Max Gust Speed 35 mph    
Visibility 9 miles    
Events Rain    
T = Trace of Precipitation, MM = Missing Value Source: NWS Daily Summary

Daily Weather History Graph

Daily Weather History Graph

Search for Another Location

Airport or City:

Astronomy

Mar. 04, 2011 Rise Set
Actual Time 6:47 AM PST 6:10 PM PST
Civil Twilight 6:19 AM PST 6:38 PM PST
Nautical Twilight 5:47 AM PST 7:10 PM PST
Astronomical Twilight 5:15 AM PST 7:43 PM PST
Moon 6:21 AM PST (3/4) 6:27 PM PST (3/4)
Length of Visible Light 12h 19m
Length of Day
11h 23m
Waning Crescent, 0% of the Moon is Illuminated
Mar 4
Waning Crescent
Mar 4
New
Mar 12
First Quarter
Mar 19
Full
Mar 26
Last Quarter

Hourly Weather History & Observations

Time (PST) Temp. Windchill Dew Point Humidity Pressure Visibility Wind Dir Wind Speed Gust Speed Precip Events Conditions
12:56 AM 45.0 °F 41.8 °F 39.9 °F 82% 30.26 in 10.0 mi East 5.8 mph - N/A   Overcast
1:56 AM 44.1 °F 41.5 °F 39.0 °F 82% 30.25 in 10.0 mi East 4.6 mph - N/A   Clear
2:56 AM 44.1 °F 40.8 °F 39.0 °F 82% 30.22 in 10.0 mi East 5.8 mph - N/A   Clear
3:56 AM 45.0 °F 42.6 °F 39.9 °F 82% 30.21 in 10.0 mi East 4.6 mph - N/A   Overcast
4:56 AM 46.9 °F - 41.0 °F 80% 30.21 in 10.0 mi East 4.6 mph - N/A   Overcast
5:56 AM 50.0 °F - 39.0 °F 66% 30.20 in 10.0 mi SSE 10.4 mph - N/A   Clear
6:56 AM 48.9 °F - 39.9 °F 71% 30.20 in 10.0 mi ESE 8.1 mph - N/A   Overcast
7:56 AM 52.0 °F - 39.0 °F 61% 30.19 in 10.0 mi SE 16.1 mph - N/A   Clear
8:56 AM 54.0 °F - 41.0 °F 62% 30.19 in 10.0 mi SSE 13.8 mph - N/A   Clear
9:56 AM 53.1 °F - 44.1 °F 71% 30.21 in 10.0 mi South 15.0 mph - N/A   Overcast
10:56 AM 52.0 °F - 43.0 °F 71% 30.23 in 10.0 mi South 17.3 mph - N/A   Overcast
11:56 AM 52.0 °F - 46.0 °F 80% 30.24 in 10.0 mi SSE 19.6 mph 27.6 mph N/A   Overcast
12:56 PM 53.1 °F - 46.0 °F 77% 30.23 in 10.0 mi SSE 15.0 mph 25.3 mph N/A   Mostly Cloudy
1:48 PM 51.8 °F - 46.4 °F 82% 30.22 in 10.0 mi South 17.3 mph - N/A   Overcast
1:56 PM 52.0 °F - 46.9 °F 83% 30.23 in 10.0 mi SSE 16.1 mph - 0.00 in Rain Light Rain
2:09 PM 51.8 °F - 46.4 °F 82% 30.21 in 10.0 mi South 19.6 mph - 0.00 in   Overcast
2:56 PM 52.0 °F - 46.9 °F 83% 30.22 in 10.0 mi SSE 12.7 mph 20.7 mph 0.00 in   Overcast
3:56 PM 52.0 °F - 46.9 °F 83% 30.22 in 10.0 mi SSE 10.4 mph 20.7 mph N/A   Overcast
4:46 PM 51.8 °F - 46.4 °F 82% 30.19 in 10.0 mi SSE 16.1 mph 24.2 mph N/A   Overcast
4:54 PM 51.8 °F - 46.4 °F 82% 30.20 in 10.0 mi SSE 24.2 mph 31.1 mph N/A   Overcast
4:56 PM 52.0 °F - 46.9 °F 83% 30.21 in 10.0 mi SSE 27.6 mph 34.5 mph N/A   Overcast
5:56 PM 52.0 °F - 46.9 °F 83% 30.19 in 10.0 mi SSE 18.4 mph 27.6 mph N/A   Overcast
6:56 PM 52.0 °F - 46.9 °F 83% 30.20 in 10.0 mi SSE 20.7 mph 28.8 mph N/A   Overcast
7:56 PM 51.1 °F - 46.9 °F 86% 30.20 in 10.0 mi SSE 16.1 mph 25.3 mph 0.00 in   Overcast
8:56 PM 51.1 °F - 48.0 °F 89% 30.20 in 7.0 mi SSE 18.4 mph 24.2 mph 0.02 in Rain Light Rain
9:56 PM 51.1 °F - 48.0 °F 89% 30.21 in 7.0 mi South 21.9 mph - 0.00 in Rain Light Rain
10:39 PM 51.8 °F - 48.2 °F 88% 30.20 in 6.0 mi SSE 21.9 mph - 0.02 in Rain Light Rain
10:56 PM 51.1 °F - 48.0 °F 89% 30.20 in 7.0 mi SSE 23.0 mph - 0.02 in Rain Light Rain
11:56 PM 50.0 °F - 48.0 °F 93% 30.20 in 5.0 mi South 16.1 mph - 0.05 in Rain Heavy Rain